Time,TemperatureF,DewpointF,PressureIn,WindDirection,WindDirectionDegrees,WindSpeedMPH,WindSpeedGustMPH,Humidity,HourlyPrecipIn,Conditions,Clouds,dailyrainin,SoftwareType,DateUTC
2013-11-01 00:01:00,35.9,35.4,27.30,NW,321,6.0,8.0,98,0.00,,---,0.00,VWS V14.01,2013-11-01 05:01:00,
2013-11-01 00:06:00,35.8,35.3,27.30,North,9,8.0,9.0,98,0.00,,---,0.00,VWS V14.01,2013-11-01 05:06:00,
2013-11-01 00:11:00,35.7,34.9,27.30,NNW,337,3.0,6.0,97,0.00,,---,0.00,VWS V14.01,2013-11-01 05:11:00,
2013-11-01 00:17:00,35.6,34.8,27.30,North,5,9.0,10.0,97,0.00,,---,0.00,VWS V14.01,2013-11-01 05:17:00,
2013-11-01 00:22:00,35.5,34.7,27.29,NNE,20,5.0,11.0,97,0.00,,---,0.00,VWS V14.01,2013-11-01 05:22:00,
2013-11-01 00:27:00,35.4,34.9,27.29,NW,323,8.0,8.0,98,0.00,,---,0.00,VWS V14.01,2013-11-01 05:27:00,
2013-11-01 00:32:00,35.4,34.9,27.29,NNW,346,4.0,11.0,98,0.00,,---,0.00,VWS V14.01,2013-11-01 05:32:00,
2013-11-01 00:38:00,35.4,34.9,27.29,North,355,8.0,8.0,98,0.00,,---,0.00,VWS V14.01,2013-11-01 05:38:00,
2013-11-01 00:43:00,35.4,34.9,27.29,North,355,6.0,6.0,98,0.00,,---,0.00,VWS V14.01,2013-11-01 05:43:00,
2013-11-01 00:45:00,35.4,34.9,27.29,NNW,330,6.0,8.0,98,0.00,,---,0.00,VWS V14.01,2013-11-01 05:45:00,
2013-11-01 00:50:00,35.4,34.9,27.30,NNW,330,6.0,6.0,98,0.00,,---,0.00,VWS V14.01,2013-11-01 05:50:00,
2013-11-01 00:55:00,35.3,34.8,27.30,NNW,340,8.0,8.0,98,0.00,,---,0.00,VWS V14.01,2013-11-01 05:55:00,
2013-11-01 01:00:00,35.3,34.8,27.30,NNW,329,3.0,4.0,98,0.00,,---,0.00,VWS V14.01,2013-11-01 06:00:00,
2013-11-01 01:05:00,35.3,34.8,27.30,NNW,335,3.0,3.0,98,0.00,,---,0.00,VWS V14.01,2013-11-01 06:05:00,
2013-11-01 01:11:00,35.2,34.7,27.30,North,355,5.0,6.0,98,0.00,,---,0.00,VWS V14.01,2013-11-01 06:11:00,
2013-11-01 01:16:00,35.2,34.7,27.30,NW,309,8.0,8.0,98,0.00,,---,0.00,VWS V14.01,2013-11-01 06:16:00,
2013-11-01 01:21:00,35.2,34.7,27.30,NNW,342,4.0,4.0,98,0.00,,---,0.00,VWS V14.01,2013-11-01 06:21:00,
2013-11-01 01:26:00,35.2,34.7,27.30,NNW,339,1.0,4.0,98,0.00,,---,0.00,VWS V14.01,2013-11-01 06:26:00,
2013-11-01 01:31:00,35.2,34.7,27.30,NNE,18,3.0,6.0,98,0.00,,---,0.00,VWS V14.01,2013-11-01 06:31:00,
2013-11-01 01:37:00,35.1,34.3,27.30,NNW,346,3.0,5.0,97,0.00,,---,0.00,VWS V14.01,2013-11-01 06:37:00,
2013-11-01 01:42:00,35.1,34.3,27.30,NNW,340,6.0,6.0,97,0.00,,---,0.00,VWS V14.01,2013-11-01 06:42:00,
2013-11-01 01:47:00,35.1,34.3,27.30,NNW,333,2.0,3.0,97,0.00,,---,0.00,VWS V14.01,2013-11-01 06:47:00,
2013-11-01 01:52:00,35.1,34.3,27.30,NNW,334,6.0,7.0,97,0.00,,---,0.00,VWS V14.01,2013-11-01 06:52:00,
2013-11-01 01:58:00,35.1,34.3,27.30,NNW,333,3.0,7.0,97,0.00,,---,0.00,VWS V14.01,2013-11-01 06:58:00,
2013-11-01 02:03:00,35.0,34.2,27.31,NW,306,1.0,8.0,97,0.00,,---,0.00,VWS V14.01,2013-11-01 07:03:00,
2013-11-01 02:08:00,35.0,34.2,27.31,NW,322,3.0,5.0,97,0.00,,---,0.00,VWS V14.01,2013-11-01 07:08:00,
2013-11-01 02:13:00,35.0,34.2,27.31,North,9,3.0,7.0,97,0.00,,---,0.00,VWS V14.01,2013-11-01 07:13:00,
2013-11-01 02:18:00,35.0,34.2,27.31,NNW,331,4.0,4.0,97,0.00,,---,0.00,VWS V14.01,2013-11-01 07:18:00,
2013-11-01 02:24:00,35.0,34.2,27.31,NW,317,7.0,9.0,97,0.00,,---,0.00,VWS V14.01,2013-11-01 07:24:00,
2013-11-01 02:29:00,35.0,34.2,27.31,NNE,21,6.0,6.0,97,0.00,,---,0.00,VWS V14.01,2013-11-01 07:29:00,
2013-11-01 02:34:00,35.0,34.2,27.31,North,360,3.0,6.0,97,0.00,,---,0.00,VWS V14.01,2013-11-01 07:34:00,
2013-11-01 02:39:00,35.0,34.2,27.31,North,350,3.0,6.0,97,0.00,,---,0.00,VWS V14.01,2013-11-01 07:39:00,
2013-11-01 02:44:00,35.0,34.2,27.31,North,349,7.0,7.0,97,0.00,,---,0.00,VWS V14.01,2013-11-01 07:44:00,
2013-11-01 02:49:00,35.0,34.2,27.31,NNW,340,10.0,10.0,97,0.00,,---,0.00,VWS V14.01,2013-11-01 07:49:00,
2013-11-01 02:54:00,34.9,34.1,27.31,North,355,3.0,3.0,97,0.00,,---,0.00,VWS V14.01,2013-11-01 07:54:00,
2013-11-01 02:59:00,34.9,34.1,27.31,North,349,3.0,9.0,97,0.00,,---,0.00,VWS V14.01,2013-11-01 07:59:00,
2013-11-01 03:05:00,34.9,34.1,27.31,NNW,330,4.0,8.0,97,0.00,,---,0.00,VWS V14.01,2013-11-01 08:05:00,
2013-11-01 03:10:00,34.9,34.1,27.31,NW,320,7.0,7.0,97,0.00,,---,0.00,VWS V14.01,2013-11-01 08:10:00,
2013-11-01 03:15:00,34.9,34.1,27.31,NW,323,6.0,6.0,97,0.00,,---,0.00,VWS V14.01,2013-11-01 08:15:00,
2013-11-01 03:20:00,34.9,34.1,27.31,NW,321,3.0,5.0,97,0.00,,---,0.00,VWS V14.01,2013-11-01 08:20:00,
2013-11-01 03:25:00,34.9,34.1,27.31,NNW,336,12.0,12.0,97,0.00,,---,0.00,VWS V14.01,2013-11-01 08:25:00,
2013-11-01 03:31:00,34.8,34.0,27.31,NNW,333,6.0,9.0,97,0.00,,---,0.00,VWS V14.01,2013-11-01 08:31:00,
2013-11-01 03:36:00,34.8,34.0,27.31,NW,325,3.0,4.0,97,0.00,,---,0.00,VWS V14.01,2013-11-01 08:36:00,
2013-11-01 03:41:00,34.7,33.9,27.31,North,355,7.0,8.0,97,0.00,,---,0.00,VWS V14.01,2013-11-01 08:41:00,
2013-11-01 03:46:00,34.7,33.9,27.31,North,360,6.0,11.0,97,0.00,,---,0.00,VWS V14.01,2013-11-01 08:46:00,
2013-11-01 03:51:00,34.7,33.9,27.31,North,355,4.0,7.0,97,0.00,,---,0.00,VWS V14.01,2013-11-01 08:51:00,
2013-11-01 03:56:00,34.7,33.9,27.31,NNW,348,4.0,4.0,97,0.00,,---,0.00,VWS V14.01,2013-11-01 08:56:00,
2013-11-01 04:02:00,34.8,34.0,27.31,NNW,328,2.0,7.0,97,0.00,,---,0.00,VWS V14.01,2013-11-01 09:02:00,
2013-11-01 04:07:00,34.8,34.0,27.31,NW,317,2.0,10.0,97,0.00,,---,0.00,VWS V14.01,2013-11-01 09:07:00,
2013-11-01 04:12:00,34.8,34.0,27.31,North,360,3.0,9.0,97,0.00,,---,0.00,VWS V14.01,2013-11-01 09:12:00,
2013-11-01 04:17:00,34.8,34.0,27.32,NW,319,6.0,6.0,97,0.00,,---,0.00,VWS V14.01,2013-11-01 09:17:00,
2013-11-01 04:22:00,34.9,34.1,27.32,North,351,5.0,6.0,97,0.00,,---,0.00,VWS V14.01,2013-11-01 09:22:00,
2013-11-01 04:28:00,34.8,34.0,27.32,NNW,340,6.0,8.0,97,0.00,,---,0.00,VWS V14.01,2013-11-01 09:28:00,
2013-11-01 04:33:00,34.7,33.9,27.32,NW,318,4.0,9.0,97,0.00,,---,0.00,VWS V14.01,2013-11-01 09:33:00,
2013-11-01 04:38:00,34.7,33.9,27.32,NNW,333,4.0,11.0,97,0.00,,---,0.00,VWS V14.01,2013-11-01 09:38:00,
2013-11-01 04:43:00,34.6,33.8,27.32,NW,324,9.0,9.0,97,0.00,,---,0.00,VWS V14.01,2013-11-01 09:43:00,
2013-11-01 04:48:00,34.6,33.6,27.33,North,5,4.0,10.0,96,0.00,,---,0.00,VWS V14.01,2013-11-01 09:48:00,
2013-11-01 04:54:00,34.6,33.6,27.33,North,350,5.0,5.0,96,0.00,,---,0.00,VWS V14.01,2013-11-01 09:54:00,
2013-11-01 04:59:00,34.7,33.7,27.33,NW,315,6.0,13.0,96,0.00,,---,0.00,VWS V14.01,2013-11-01 09:59:00,
2013-11-01 05:04:00,34.7,33.7,27.34,NNW,344,2.0,4.0,96,0.00,,---,0.00,VWS V14.01,2013-11-01 10:04:00,
2013-11-01 05:09:00,34.7,33.7,27.34,West,275,6.0,7.0,96,0.00,,---,0.00,VWS V14.01,2013-11-01 10:09:00,
2013-11-01 05:15:00,34.8,33.8,27.34,NNW,343,3.0,3.0,96,0.00,,---,0.00,VWS V14.01,2013-11-01 10:15:00,
2013-11-01 05:20:00,34.7,33.7,27.34,NNE,13,2.0,6.0,96,0.00,,---,0.00,VWS V14.01,2013-11-01 10:20:00,
2013-11-01 05:25:00,34.8,33.8,27.34,NNW,339,5.0,6.0,96,0.00,,---,0.00,VWS V14.01,2013-11-01 10:25:00,
2013-11-01 05:30:00,34.8,33.8,27.34,North,355,3.0,7.0,96,0.00,,---,0.00,VWS V14.01,2013-11-01 10:30:00,
2013-11-01 05:35:00,34.7,33.7,27.35,North,9,3.0,6.0,96,0.00,,---,0.00,VWS V14.01,2013-11-01 10:35:00,
2013-11-01 05:40:00,34.7,33.7,27.35,North,355,1.0,4.0,96,0.00,,---,0.00,VWS V14.01,2013-11-01 10:40:00,
2013-11-01 05:45:00,34.8,33.8,27.35,North,5,3.0,5.0,96,0.00,,---,0.00,VWS V14.01,2013-11-01 10:45:00,
2013-11-01 05:50:00,34.8,33.8,27.35,North,360,5.0,12.0,96,0.00,,---,0.00,VWS V14.01,2013-11-01 10:50:00,
2013-11-01 05:55:00,34.8,33.8,27.35,NNW,346,5.0,5.0,96,0.00,,---,0.00,VWS V14.01,2013-11-01 10:55:00,
2013-11-01 06:00:00,34.8,33.8,27.35,NW,314,2.0,3.0,96,0.00,,---,0.00,VWS V14.01,2013-11-01 11:00:00,
2013-11-01 06:06:00,34.8,33.8,27.35,NNW,340,1.0,7.0,96,0.00,,---,0.00,VWS V14.01,2013-11-01 11:06:00,
2013-11-01 06:11:00,34.8,33.8,27.35,NNW,346,1.0,6.0,96,0.00,,---,0.00,VWS V14.01,2013-11-01 11:11:00,
2013-11-01 06:16:00,34.8,33.8,27.35,North,9,2.0,5.0,96,0.00,,---,0.00,VWS V14.01,2013-11-01 11:16:00,
2013-11-01 06:21:00,34.8,33.8,27.37,NNW,330,8.0,9.0,96,0.00,,---,0.00,VWS V14.01,2013-11-01 11:21:00,
2013-11-01 06:26:00,34.8,33.8,27.37,NNE,12,3.0,9.0,96,0.00,,---,0.00,VWS V14.01,2013-11-01 11:26:00,
2013-11-01 06:31:00,34.8,33.8,27.37,NNW,346,0.0,3.0,96,0.00,,---,0.00,VWS V14.01,2013-11-01 11:31:00,
2013-11-01 06:36:00,34.9,33.9,27.37,NNW,343,2.0,7.0,96,0.00,,---,0.00,VWS V14.01,2013-11-01 11:36:00,
2013-11-01 06:42:00,34.9,33.9,27.37,NNW,329,2.0,5.0,96,0.00,,---,0.00,VWS V14.01,2013-11-01 11:42:00,
2013-11-01 06:47:00,34.8,34.0,27.37,North,355,4.0,8.0,97,0.00,,---,0.00,VWS V14.01,2013-11-01 11:47:00,
2013-11-01 06:52:00,34.9,34.1,27.37,NNW,330,4.0,5.0,97,0.00,,---,0.00,VWS V14.01,2013-11-01 11:52:00,
2013-11-01 06:57:00,34.9,33.9,27.37,North,355,6.0,6.0,96,0.00,,---,0.00,VWS V14.01,2013-11-01 11:57:00,
2013-11-01 07:03:00,34.9,33.9,27.37,NNW,327,9.0,10.0,96,0.00,,---,0.00,VWS V14.01,2013-11-01 12:03:00,
2013-11-01 07:08:00,34.8,33.8,27.37,NNW,340,5.0,5.0,96,0.00,,---,0.00,VWS V14.01,2013-11-01 12:08:00,
2013-11-01 07:13:00,34.8,33.8,27.37,NW,315,6.0,8.0,96,0.00,,---,0.00,VWS V14.01,2013-11-01 12:13:00,
2013-11-01 07:18:00,34.8,33.8,27.38,North,360,3.0,3.0,96,0.00,,---,0.00,VWS V14.01,2013-11-01 12:18:00,
2013-11-01 07:23:00,34.7,33.7,27.38,NNW,330,4.0,4.0,96,0.00,,---,0.00,VWS V14.01,2013-11-01 12:23:00,
2013-11-01 07:29:00,34.7,33.7,27.38,NNE,25,4.0,6.0,96,0.00,,---,0.00,VWS V14.01,2013-11-01 12:29:00,
2013-11-01 07:34:00,34.7,33.7,27.39,NNW,327,3.0,5.0,96,0.00,,---,0.00,VWS V14.01,2013-11-01 12:34:00,
2013-11-01 07:39:00,34.7,33.7,27.39,NNW,344,4.0,6.0,96,0.00,,---,0.00,VWS V14.01,2013-11-01 12:39:00,
2013-11-01 07:44:00,34.7,33.7,27.39,NW,323,4.0,4.0,96,0.00,,---,0.00,VWS V14.01,2013-11-01 12:44:00,
2013-11-01 07:49:00,34.6,33.6,27.39,NW,313,1.0,2.0,96,0.00,,---,0.00,VWS V14.01,2013-11-01 12:49:00,
2013-11-01 07:54:00,34.6,33.6,27.39,NNW,336,3.0,3.0,96,0.00,,---,0.00,VWS V14.01,2013-11-01 12:54:00,
2013-11-01 08:00:00,34.6,33.6,27.39,North,10,4.0,4.0,96,0.00,,---,0.00,VWS V14.01,2013-11-01 13:00:00,
2013-11-01 08:05:00,34.6,33.6,27.40,NW,321,4.0,10.0,96,0.00,,---,0.00,VWS V14.01,2013-11-01 13:05:00,
2013-11-01 08:10:00,34.5,33.5,27.40,North,355,4.0,6.0,96,0.00,,---,0.00,VWS V14.01,2013-11-01 13:10:00,
2013-11-01 08:15:00,34.5,33.5,27.40,North,355,4.0,7.0,96,0.00,,---,0.00,VWS V14.01,2013-11-01 13:15:00,
2013-11-01 08:20:00,34.4,33.4,27.41,NNW,341,4.0,5.0,96,0.00,,---,0.00,VWS V14.01,2013-11-01 13:20:00,
2013-11-01 08:25:00,34.4,33.4,27.41,NNW,347,2.0,8.0,96,0.00,,---,0.00,VWS V14.01,2013-11-01 13:25:00,
2013-11-01 08:30:00,34.4,33.4,27.41,NNW,333,7.0,7.0,96,0.00,,---,0.00,VWS V14.01,2013-11-01 13:30:00,
2013-11-01 08:35:00,34.4,33.4,27.42,North,360,3.0,6.0,96,0.00,,---,0.00,VWS V14.01,2013-11-01 13:35:00,
2013-11-01 08:40:00,34.4,33.4,27.42,NW,311,6.0,9.0,96,0.00,,---,0.00,VWS V14.01,2013-11-01 13:40:00,
2013-11-01 08:46:00,34.4,33.4,27.42,North,5,3.0,5.0,96,0.00,,---,0.00,VWS V14.01,2013-11-01 13:46:00,
2013-11-01 08:51:00,34.4,33.4,27.42,NW,321,6.0,8.0,96,0.00,,---,0.00,VWS V14.01,2013-11-01 13:51:00,
2013-11-01 08:56:00,34.4,33.4,27.42,North,349,6.0,10.0,96,0.00,,---,0.00,VWS V14.01,2013-11-01 13:56:00,
2013-11-01 09:01:00,34.4,33.4,27.42,North,5,3.0,5.0,96,0.00,,---,0.00,VWS V14.01,2013-11-01 14:01:00,
2013-11-01 09:06:00,34.4,33.4,27.42,NNW,346,4.0,5.0,96,0.00,,---,0.00,VWS V14.01,2013-11-01 14:06:00,
2013-11-01 09:11:00,34.4,33.4,27.42,NNE,22,3.0,4.0,96,0.00,,---,0.00,VWS V14.01,2013-11-01 14:11:00,
2013-11-01 09:17:00,34.4,33.1,27.42,North,355,3.0,7.0,95,0.00,,---,0.00,VWS V14.01,2013-11-01 14:17:00,
2013-11-01 09:22:00,34.4,33.1,27.43,NW,311,4.0,5.0,95,0.00,,---,0.00,VWS V14.01,2013-11-01 14:22:00,
2013-11-01 09:27:00,34.4,33.1,27.43,North,360,6.0,7.0,95,0.00,,---,0.00,VWS V14.01,2013-11-01 14:27:00,
2013-11-01 09:32:00,34.4,33.1,27.43,North,9,3.0,5.0,95,0.00,,---,0.00,VWS V14.01,2013-11-01 14:32:00,
2013-11-01 09:37:00,34.4,33.1,27.43,NNE,13,6.0,7.0,95,0.00,,---,0.00,VWS V14.01,2013-11-01 14:37:00,
2013-11-01 09:42:00,34.4,32.9,27.43,North,360,3.0,5.0,94,0.00,,---,0.00,VWS V14.01,2013-11-01 14:42:00,
2013-11-01 09:48:00,34.5,33.0,27.43,NNW,348,6.0,8.0,94,0.00,,---,0.00,VWS V14.01,2013-11-01 14:48:00,
2013-11-01 09:53:00,34.6,32.8,27.43,NNW,343,5.0,7.0,93,0.00,,---,0.00,VWS V14.01,2013-11-01 14:53:00,
2013-11-01 09:58:00,34.6,32.5,27.43,North,355,2.0,3.0,92,0.00,,---,0.00,VWS V14.01,2013-11-01 14:58:00,
2013-11-01 10:03:00,34.7,32.6,27.44,NNW,347,2.0,4.0,92,0.00,,---,0.00,VWS V14.01,2013-11-01 15:03:00,
2013-11-01 10:08:00,34.8,33.0,27.44,North,355,3.0,5.0,93,0.00,,---,0.00,VWS V14.01,2013-11-01 15:08:00,
2013-11-01 10:13:00,34.8,33.0,27.44,NNE,21,5.0,5.0,93,0.00,,---,0.00,VWS V14.01,2013-11-01 15:13:00,
2013-11-01 10:19:00,34.8,33.0,27.44,NNW,348,5.0,8.0,93,0.00,,---,0.00,VWS V14.01,2013-11-01 15:19:00,
2013-11-01 10:24:00,34.8,32.7,27.44,NNW,328,4.0,6.0,92,0.00,,---,0.00,VWS V14.01,2013-11-01 15:24:00,
2013-11-01 10:29:00,34.7,32.9,27.44,North,350,3.0,5.0,93,0.00,,---,0.00,VWS V14.01,2013-11-01 15:29:00,
2013-11-01 10:34:00,34.7,32.9,27.45,North,5,2.0,3.0,93,0.00,,---,0.00,VWS V14.01,2013-11-01 15:34:00,
2013-11-01 10:39:00,34.8,33.0,27.45,North,360,6.0,8.0,93,0.00,,---,0.00,VWS V14.01,2013-11-01 15:39:00,
2013-11-01 10:45:00,34.8,33.0,27.45,North,5,5.0,5.0,93,0.00,,---,0.00,VWS V14.01,2013-11-01 15:45:00,
2013-11-01 10:50:00,34.7,32.9,27.45,NW,326,6.0,6.0,93,0.00,,---,0.00,VWS V14.01,2013-11-01 15:50:00,
2013-11-01 10:55:00,34.8,33.0,27.45,North,360,0.0,3.0,93,0.00,,---,0.00,VWS V14.01,2013-11-01 15:55:00,
2013-11-01 11:00:00,34.9,33.1,27.45,North,350,3.0,5.0,93,0.00,,---,0.00,VWS V14.01,2013-11-01 16:00:00,
2013-11-01 11:05:00,34.9,33.1,27.46,NNW,346,3.0,5.0,93,0.00,,---,0.00,VWS V14.01,2013-11-01 16:05:00,
2013-11-01 11:10:00,35.0,33.2,27.46,NNW,343,4.0,5.0,93,0.00,,---,0.00,VWS V14.01,2013-11-01 16:10:00,
2013-11-01 11:15:00,35.0,32.9,27.46,NNW,329,4.0,4.0,92,0.00,,---,0.00,VWS V14.01,2013-11-01 16:15:00,
2013-11-01 11:21:00,35.0,33.2,27.46,North,355,6.0,8.0,93,0.00,,---,0.00,VWS V14.01,2013-11-01 16:21:00,
2013-11-01 11:26:00,35.1,33.3,27.46,NNW,348,9.0,10.0,93,0.00,,---,0.00,VWS V14.01,2013-11-01 16:26:00,
2013-11-01 11:31:00,35.0,33.2,27.46,North,11,3.0,6.0,93,0.00,,---,0.00,VWS V14.01,2013-11-01 16:31:00,
2013-11-01 11:36:00,35.2,33.4,27.47,NNW,343,5.0,5.0,93,0.00,,---,0.00,VWS V14.01,2013-11-01 16:36:00,
2013-11-01 11:41:00,35.2,33.4,27.47,North,5,5.0,5.0,93,0.00,,---,0.00,VWS V14.01,2013-11-01 16:41:00,
2013-11-01 11:46:00,35.3,33.2,27.47,NNW,332,5.0,5.0,92,0.00,,---,0.00,VWS V14.01,2013-11-01 16:46:00,
2013-11-01 11:51:00,35.3,33.2,27.48,North,350,4.0,4.0,92,0.00,,---,0.00,VWS V14.01,2013-11-01 16:51:00,
2013-11-01 11:57:00,35.5,33.4,27.48,North,360,5.0,5.0,92,0.00,,---,0.00,VWS V14.01,2013-11-01 16:57:00,
2013-11-01 12:02:00,35.4,33.3,27.48,NNW,348,3.0,5.0,92,0.00,,---,0.00,VWS V14.01,2013-11-01 17:02:00,
2013-11-01 12:07:00,35.4,33.3,27.49,NNW,344,4.0,4.0,92,0.00,,---,0.00,VWS V14.01,2013-11-01 17:07:00,
2013-11-01 12:12:00,35.4,33.3,27.49,North,9,6.0,8.0,92,0.00,,---,0.00,VWS V14.01,2013-11-01 17:12:00,
2013-11-01 12:17:00,35.4,33.3,27.49,NNE,17,0.0,2.0,92,0.00,,---,0.00,VWS V14.01,2013-11-01 17:17:00,
2013-11-01 12:22:00,35.3,33.2,27.49,NNW,338,1.0,2.0,92,0.00,,---,0.00,VWS V14.01,2013-11-01 17:22:00,
2013-11-01 12:28:00,35.4,33.3,27.49,NNW,347,2.0,4.0,92,0.00,,---,0.00,VWS V14.01,2013-11-01 17:28:00,
2013-11-01 12:33:00,35.4,33.3,27.49,North,9,2.0,3.0,92,0.00,,---,0.00,VWS V14.01,2013-11-01 17:33:00,
2013-11-01 12:38:00,35.4,33.3,27.49,NNW,342,4.0,6.0,92,0.00,,---,0.00,VWS V14.01,2013-11-01 17:38:00,
2013-11-01 12:43:00,35.2,33.1,27.49,North,360,0.0,1.0,92,0.00,,---,0.00,VWS V14.01,2013-11-01 17:43:00,
2013-11-01 12:48:00,35.2,33.1,27.50,North,360,1.0,1.0,92,0.00,,---,0.00,VWS V14.01,2013-11-01 17:48:00,
2013-11-01 12:53:00,35.4,33.6,27.50,North,9,3.0,3.0,93,0.00,,---,0.00,VWS V14.01,2013-11-01 17:53:00,
2013-11-01 12:59:00,35.6,33.8,27.50,North,9,1.0,1.0,93,0.00,,---,0.00,VWS V14.01,2013-11-01 17:59:00,
2013-11-01 13:04:00,35.6,33.8,27.50,NNW,340,5.0,7.0,93,0.00,,---,0.00,VWS V14.01,2013-11-01 18:04:00,
2013-11-01 13:09:00,35.5,33.1,27.50,NNE,13,2.0,3.0,91,0.00,,---,0.00,VWS V14.01,2013-11-01 18:09:00,
2013-11-01 13:14:00,35.5,33.4,27.50,North,11,3.0,4.0,92,0.00,,---,0.00,VWS V14.01,2013-11-01 18:14:00,
2013-11-01 13:20:00,35.5,33.4,27.51,North,351,4.0,4.0,92,0.00,,---,0.00,VWS V14.01,2013-11-01 18:20:00,
2013-11-01 13:25:00,35.2,32.8,27.51,NNE,23,1.0,5.0,91,0.00,,---,0.00,VWS V14.01,2013-11-01 18:25:00,
2013-11-01 13:30:00,35.3,33.2,27.51,NNW,339,0.0,1.0,92,0.00,,---,0.00,VWS V14.01,2013-11-01 18:30:00,
2013-11-01 13:35:00,35.5,33.1,27.51,North,351,3.0,3.0,91,0.00,,---,0.00,VWS V14.01,2013-11-01 18:35:00,
2013-11-01 13:40:00,35.5,33.1,27.51,NNW,342,2.0,3.0,91,0.00,,---,0.00,VWS V14.01,2013-11-01 18:40:00,
2013-11-01 13:46:00,35.8,33.4,27.51,NNW,337,4.0,4.0,91,0.00,,---,0.00,VWS V14.01,2013-11-01 18:46:00,
2013-11-01 13:51:00,35.8,33.4,27.51,North,5,4.0,4.0,91,0.00,,---,0.00,VWS V14.01,2013-11-01 18:51:00,
2013-11-01 13:56:00,35.8,33.4,27.51,NNW,346,4.0,6.0,91,0.00,,---,0.00,VWS V14.01,2013-11-01 18:56:00,
2013-11-01 14:01:00,35.6,33.0,27.51,North,9,3.0,3.0,90,0.00,,---,0.00,VWS V14.01,2013-11-01 19:01:00,
2013-11-01 14:06:00,35.7,33.1,27.52,NW,304,2.0,7.0,90,0.00,,---,0.00,VWS V14.01,2013-11-01 19:06:00,
2013-11-01 14:11:00,35.8,32.9,27.52,NNW,346,6.0,8.0,89,0.00,,---,0.00,VWS V14.01,2013-11-01 19:11:00,
2013-11-01 14:16:00,35.8,32.6,27.52,North,360,3.0,6.0,88,0.00,,---,0.00,VWS V14.01,2013-11-01 19:16:00,
2013-11-01 14:22:00,35.9,32.7,27.53,North,360,3.0,4.0,88,0.00,,---,0.00,VWS V14.01,2013-11-01 19:22:00,
2013-11-01 14:27:00,35.8,32.9,27.53,North,10,4.0,4.0,89,0.00,,---,0.00,VWS V14.01,2013-11-01 19:27:00,
2013-11-01 14:32:00,35.7,33.1,27.54,NNW,339,5.0,5.0,90,0.00,,---,0.00,VWS V14.01,2013-11-01 19:32:00,
2013-11-01 14:37:00,35.1,32.7,27.54,North,5,5.0,5.0,91,0.00,,---,0.00,VWS V14.01,2013-11-01 19:37:00,
2013-11-01 14:42:00,34.4,32.3,27.54,NNW,343,4.0,6.0,92,0.00,,---,0.00,VWS V14.01,2013-11-01 19:42:00,
2013-11-01 14:48:00,34.2,32.4,27.54,NW,318,3.0,3.0,93,0.00,,---,0.00,VWS V14.01,2013-11-01 19:48:00,
2013-11-01 14:53:00,34.3,32.8,27.54,North,355,4.0,5.0,94,0.00,,---,0.00,VWS V14.01,2013-11-01 19:53:00,
2013-11-01 14:58:00,34.4,32.9,27.54,North,10,5.0,7.0,94,0.00,,---,0.00,VWS V14.01,2013-11-01 19:58:00,
2013-11-01 15:03:00,34.6,33.0,27.55,North,10,0.0,4.0,94,0.00,,---,0.00,VWS V14.01,2013-11-01 20:03:00,
2013-11-01 15:08:00,34.8,33.2,27.55,NNW,343,2.0,2.0,94,0.00,,---,0.00,VWS V14.01,2013-11-01 20:08:00,
2013-11-01 15:13:00,34.9,33.3,27.55,North,350,0.0,0.0,94,0.00,,---,0.00,VWS V14.01,2013-11-01 20:13:00,
2013-11-01 15:19:00,35.0,33.5,27.55,NNW,342,0.0,4.0,94,0.00,,---,0.00,VWS V14.01,2013-11-01 20:19:00,
2013-11-01 15:24:00,35.1,33.0,27.55,North,351,2.0,5.0,92,0.00,,---,0.00,VWS V14.01,2013-11-01 20:24:00,
2013-11-01 15:29:00,35.1,33.0,27.55,NNW,348,1.0,2.0,92,0.00,,---,0.00,VWS V14.01,2013-11-01 20:29:00,
2013-11-01 15:34:00,35.3,32.9,27.56,NNW,345,3.0,3.0,91,0.00,,---,0.00,VWS V14.01,2013-11-01 20:34:00,
2013-11-01 15:39:00,35.3,32.7,27.56,NNW,347,2.0,8.0,90,0.00,,---,0.00,VWS V14.01,2013-11-01 20:39:00,
2013-11-01 15:44:00,35.4,33.0,27.56,North,355,0.0,0.0,91,0.00,,---,0.00,VWS V14.01,2013-11-01 20:44:00,
2013-11-01 15:49:00,35.7,33.3,27.57,NW,321,4.0,4.0,91,0.00,,---,0.00,VWS V14.01,2013-11-01 20:49:00,
2013-11-01 15:55:00,35.5,32.9,27.57,North,360,4.0,6.0,90,0.00,,---,0.00,VWS V14.01,2013-11-01 20:55:00,
2013-11-01 16:00:00,35.1,32.7,27.57,NW,310,1.0,5.0,91,0.00,,---,0.00,VWS V14.01,2013-11-01 21:00:00,
2013-11-01 16:05:00,34.5,32.2,27.57,NW,324,5.0,5.0,91,0.00,,---,0.00,VWS V14.01,2013-11-01 21:05:00,
2013-11-01 16:10:00,34.4,32.0,27.57,WNW,288,4.0,4.0,91,0.00,,---,0.00,VWS V14.01,2013-11-01 21:10:00,
2013-11-01 16:15:00,34.4,32.0,27.57,NW,308,3.0,3.0,91,0.00,,---,0.00,VWS V14.01,2013-11-01 21:15:00,
2013-11-01 16:21:00,34.5,31.9,27.58,NNW,327,4.0,4.0,90,0.00,,---,0.00,VWS V14.01,2013-11-01 21:21:00,
2013-11-01 16:26:00,34.7,32.1,27.58,NW,304,0.0,3.0,90,0.00,,---,0.00,VWS V14.01,2013-11-01 21:26:00,
2013-11-01 16:31:00,34.8,32.2,27.58,NW,322,4.0,4.0,90,0.00,,---,0.00,VWS V14.01,2013-11-01 21:31:00,
2013-11-01 16:36:00,34.8,32.2,27.58,NW,326,2.0,5.0,90,0.00,,---,0.00,VWS V14.01,2013-11-01 21:36:00,
2013-11-01 16:42:00,34.9,32.3,27.58,North,355,1.0,4.0,90,0.00,,---,0.00,VWS V14.01,2013-11-01 21:42:00,
2013-11-01 16:47:00,34.8,31.9,27.58,North,351,3.0,6.0,89,0.00,,---,0.00,VWS V14.01,2013-11-01 21:47:00,
2013-11-01 16:52:00,34.8,31.9,27.60,NNE,14,5.0,7.0,89,0.00,,---,0.00,VWS V14.01,2013-11-01 21:52:00,
2013-11-01 16:57:00,34.8,31.9,27.60,North,355,3.0,6.0,89,0.00,,---,0.00,VWS V14.01,2013-11-01 21:57:00,
2013-11-01 17:02:00,34.8,32.2,27.60,NW,312,1.0,2.0,90,0.00,,---,0.00,VWS V14.01,2013-11-01 22:02:00,
2013-11-01 17:07:00,34.7,32.1,27.60,NNW,331,3.0,6.0,90,0.00,,---,0.00,VWS V14.01,2013-11-01 22:07:00,
2013-11-01 17:12:00,34.4,31.5,27.60,NNW,347,4.0,4.0,89,0.00,,---,0.00,VWS V14.01,2013-11-01 22:12:00,
2013-11-01 17:17:00,34.4,31.8,27.61,North,5,1.0,2.0,90,0.00,,---,0.00,VWS V14.01,2013-11-01 22:17:00,
2013-11-01 17:23:00,34.4,31.8,27.61,NNW,342,5.0,6.0,90,0.00,,---,0.00,VWS V14.01,2013-11-01 22:23:00,
2013-11-01 17:28:00,34.4,32.0,27.61,NNW,346,5.0,5.0,91,0.00,,---,0.00,VWS V14.01,2013-11-01 22:28:00,
2013-11-01 17:33:00,34.4,32.0,27.61,NNE,13,1.0,1.0,91,0.00,,---,0.00,VWS V14.01,2013-11-01 22:33:00,
2013-11-01 17:38:00,34.3,32.0,27.61,NNE,12,5.0,6.0,91,0.00,,---,0.00,VWS V14.01,2013-11-01 22:38:00,
2013-11-01 17:44:00,34.3,32.0,27.61,North,360,2.0,3.0,91,0.00,,---,0.00,VWS V14.01,2013-11-01 22:44:00,
2013-11-01 17:49:00,34.1,31.8,27.62,NNE,17,1.0,4.0,91,0.00,,---,0.00,VWS V14.01,2013-11-01 22:49:00,
2013-11-01 17:54:00,34.0,31.6,27.62,North,5,4.0,8.0,91,0.00,,---,0.00,VWS V14.01,2013-11-01 22:54:00,
2013-11-01 17:59:00,33.9,31.6,27.62,NNW,327,1.0,2.0,91,0.00,,---,0.00,VWS V14.01,2013-11-01 22:59:00,
2013-11-01 18:04:00,33.8,31.5,27.63,NW,321,2.0,4.0,91,0.00,,---,0.00,VWS V14.01,2013-11-01 23:04:00,
2013-11-01 18:10:00,33.8,31.5,27.63,North,5,5.0,5.0,91,0.00,,---,0.00,VWS V14.01,2013-11-01 23:10:00,
2013-11-01 18:15:00,33.7,31.6,27.63,NNW,344,6.0,6.0,92,0.00,,---,0.00,VWS V14.01,2013-11-01 23:15:00,
2013-11-01 18:20:00,33.8,31.7,27.64,NNW,336,3.0,3.0,92,0.00,,---,0.00,VWS V14.01,2013-11-01 23:20:00,
2013-11-01 18:25:00,33.8,31.7,27.64,NNW,333,4.0,4.0,92,0.00,,---,0.00,VWS V14.01,2013-11-01 23:25:00,
2013-11-01 18:31:00,33.8,31.7,27.64,NW,324,2.0,3.0,92,0.00,,---,0.00,VWS V14.01,2013-11-01 23:31:00,
2013-11-01 18:36:00,33.8,31.7,27.64,NNW,339,1.0,6.0,92,0.00,,---,0.00,VWS V14.01,2013-11-01 23:36:00,
2013-11-01 18:41:00,33.8,31.7,27.64,NNW,337,2.0,6.0,92,0.00,,---,0.00,VWS V14.01,2013-11-01 23:41:00,
2013-11-01 18:46:00,33.8,31.7,27.64,North,5,4.0,4.0,92,0.00,,---,0.00,VWS V14.01,2013-11-01 23:46:00,
2013-11-01 18:51:00,33.7,31.4,27.65,North,5,4.0,4.0,91,0.00,,---,0.00,VWS V14.01,2013-11-01 23:51:00,
2013-11-01 18:57:00,33.6,31.0,27.65,NNE,21,3.0,3.0,90,0.00,,---,0.00,VWS V14.01,2013-11-01 23:57:00,
2013-11-01 19:02:00,33.6,31.0,27.65,North,5,1.0,6.0,90,0.00,,---,0.00,VWS V14.01,2013-11-02 00:02:00,
2013-11-01 19:07:00,33.5,30.9,27.65,NNW,331,1.0,2.0,90,0.00,,---,0.00,VWS V14.01,2013-11-02 00:07:00,
2013-11-01 19:12:00,33.5,30.9,27.65,North,5,3.0,5.0,90,0.00,,---,0.00,VWS V14.01,2013-11-02 00:12:00,
2013-11-01 19:17:00,33.5,30.9,27.65,NNW,344,1.0,3.0,90,0.00,,---,0.00,VWS V14.01,2013-11-02 00:17:00,
2013-11-01 19:22:00,33.4,30.8,27.66,NNW,342,3.0,3.0,90,0.00,,---,0.00,VWS V14.01,2013-11-02 00:22:00,
2013-11-01 19:27:00,33.4,30.8,27.66,NNW,346,3.0,5.0,90,0.00,,---,0.00,VWS V14.01,2013-11-02 00:27:00,
2013-11-01 19:32:00,33.4,30.8,27.66,North,10,2.0,7.0,90,0.00,,---,0.00,VWS V14.01,2013-11-02 00:32:00,
2013-11-01 19:37:00,33.3,30.4,27.67,North,360,3.0,5.0,89,0.00,,---,0.00,VWS V14.01,2013-11-02 00:37:00,
2013-11-01 19:42:00,33.3,30.7,27.67,North,5,1.0,3.0,90,0.00,,---,0.00,VWS V14.01,2013-11-02 00:42:00,
2013-11-01 19:48:00,33.3,30.7,27.67,North,355,4.0,4.0,90,0.00,,---,0.00,VWS V14.01,2013-11-02 00:48:00,
2013-11-01 19:53:00,33.3,30.7,27.67,North,360,2.0,3.0,90,0.00,,---,0.00,VWS V14.01,2013-11-02 00:53:00,
2013-11-01 19:58:00,33.3,30.7,27.67,NNW,333,4.0,5.0,90,0.00,,---,0.00,VWS V14.01,2013-11-02 00:58:00,
2013-11-01 20:03:00,33.2,30.6,27.68,NNW,346,2.0,4.0,90,0.00,,---,0.00,VWS V14.01,2013-11-02 01:03:00,
2013-11-01 20:08:00,33.2,30.6,27.68,North,350,6.0,6.0,90,0.00,,---,0.00,VWS V14.01,2013-11-02 01:08:00,
2013-11-01 20:13:00,33.2,30.6,27.68,North,350,3.0,3.0,90,0.00,,---,0.00,VWS V14.01,2013-11-02 01:13:00,
2013-11-01 20:19:00,33.2,30.9,27.68,North,355,4.0,4.0,91,0.00,,---,0.00,VWS V14.01,2013-11-02 01:19:00,
2013-11-01 20:24:00,33.2,30.9,27.68,North,350,4.0,7.0,91,0.00,,---,0.00,VWS V14.01,2013-11-02 01:24:00,
2013-11-01 20:29:00,33.2,30.9,27.68,North,355,6.0,6.0,91,0.00,,---,0.00,VWS V14.01,2013-11-02 01:29:00,
2013-11-01 20:34:00,33.2,30.9,27.69,NNW,338,2.0,3.0,91,0.00,,---,0.00,VWS V14.01,2013-11-02 01:34:00,
2013-11-01 20:39:00,33.2,30.9,27.69,North,350,0.0,0.0,91,0.00,,---,0.00,VWS V14.01,2013-11-02 01:39:00,
2013-11-01 20:44:00,33.2,30.9,27.69,North,350,1.0,1.0,91,0.00,,---,0.00,VWS V14.01,2013-11-02 01:44:00,
2013-11-01 20:50:00,33.2,31.1,27.69,North,350,0.0,2.0,92,0.00,,---,0.00,VWS V14.01,2013-11-02 01:50:00,
2013-11-01 20:55:00,33.2,31.1,27.69,North,350,1.0,2.0,92,0.00,,---,0.00,VWS V14.01,2013-11-02 01:55:00,
2013-11-01 21:00:00,33.1,31.0,27.69,NNW,346,2.0,2.0,92,0.00,,---,0.00,VWS V14.01,2013-11-02 02:00:00,
2013-11-01 21:05:00,33.2,31.1,27.69,North,360,2.0,3.0,92,0.00,,---,0.00,VWS V14.01,2013-11-02 02:05:00,
2013-11-01 21:10:00,33.2,31.1,27.69,NNW,340,3.0,3.0,92,0.00,,---,0.00,VWS V14.01,2013-11-02 02:10:00,
2013-11-01 21:16:00,33.1,31.0,27.69,NNW,348,3.0,3.0,92,0.00,,---,0.00,VWS V14.01,2013-11-02 02:16:00,
2013-11-01 21:21:00,33.1,31.0,27.70,NNW,336,2.0,6.0,92,0.00,,---,0.00,VWS V14.01,2013-11-02 02:21:00,
2013-11-01 21:26:00,33.1,31.0,27.70,NNW,344,3.0,4.0,92,0.00,,---,0.00,VWS V14.01,2013-11-02 02:26:00,
2013-11-01 21:31:00,33.1,31.0,27.70,NNW,330,4.0,4.0,92,0.00,,---,0.00,VWS V14.01,2013-11-02 02:31:00,
2013-11-01 21:37:00,33.0,30.9,27.71,North,5,3.0,3.0,92,0.00,,---,0.00,VWS V14.01,2013-11-02 02:37:00,
2013-11-01 21:42:00,33.0,30.9,27.71,North,5,2.0,3.0,92,0.00,,---,0.00,VWS V14.01,2013-11-02 02:42:00,
2013-11-01 21:47:00,33.0,30.9,27.71,North,5,1.0,2.0,92,0.00,,---,0.00,VWS V14.01,2013-11-02 02:47:00,
2013-11-01 21:52:00,33.0,30.9,27.71,North,360,4.0,4.0,92,0.00,,---,0.00,VWS V14.01,2013-11-02 02:52:00,
2013-11-01 21:57:00,33.0,30.9,27.71,North,360,3.0,3.0,92,0.00,,---,0.00,VWS V14.01,2013-11-02 02:57:00,
2013-11-01 22:02:00,32.9,30.8,27.71,North,5,1.0,4.0,92,0.00,,---,0.00,VWS V14.01,2013-11-02 03:02:00,
2013-11-01 22:07:00,32.9,30.8,27.71,North,360,0.0,3.0,92,0.00,,---,0.00,VWS V14.01,2013-11-02 03:07:00,
2013-11-01 22:12:00,32.8,30.7,27.71,North,5,0.0,3.0,92,0.00,,---,0.00,VWS V14.01,2013-11-02 03:12:00,
2013-11-01 22:17:00,32.8,30.7,27.71,North,10,3.0,5.0,92,0.00,,---,0.00,VWS V14.01,2013-11-02 03:17:00,
2013-11-01 22:22:00,32.8,30.7,27.72,North,10,1.0,3.0,92,0.00,,---,0.00,VWS V14.01,2013-11-02 03:22:00,
2013-11-01 22:27:00,32.8,30.7,27.72,North,11,0.0,1.0,92,0.00,,---,0.00,VWS V14.01,2013-11-02 03:27:00,
2013-11-01 22:32:00,32.8,30.7,27.72,North,9,1.0,2.0,92,0.00,,---,0.00,VWS V14.01,2013-11-02 03:32:00,
2013-11-01 22:37:00,32.8,30.7,27.72,North,9,0.0,1.0,92,0.00,,---,0.00,VWS V14.01,2013-11-02 03:37:00,
2013-11-01 22:42:00,32.7,30.6,27.72,North,9,2.0,2.0,92,0.00,,---,0.00,VWS V14.01,2013-11-02 03:42:00,
2013-11-01 22:47:00,32.7,30.6,27.72,NNE,13,3.0,4.0,92,0.00,,---,0.00,VWS V14.01,2013-11-02 03:47:00,
2013-11-01 22:52:00,32.6,30.5,27.72,North,360,0.0,4.0,92,0.00,,---,0.00,VWS V14.01,2013-11-02 03:52:00,
2013-11-01 22:58:00,32.6,30.3,27.72,North,5,0.0,3.0,91,0.00,,---,0.00,VWS V14.01,2013-11-02 03:58:00,
2013-11-01 23:01:00,32.6,30.0,27.72,North,5,3.0,5.0,90,0.00,,---,0.00,VWS V14.01,2013-11-02 04:01:00,
2013-11-01 23:02:00,32.5,29.9,27.72,North,5,4.0,4.0,90,0.00,,---,0.00,VWS V14.01,2013-11-02 04:02:00,
2013-11-01 23:03:00,32.5,29.9,27.72,North,355,4.0,5.0,90,0.00,,---,0.00,VWS V14.01,2013-11-02 04:03:00,
2013-11-01 23:08:00,32.5,29.9,27.72,North,9,2.0,4.0,90,0.00,,---,0.00,VWS V14.01,2013-11-02 04:08:00,
2013-11-01 23:09:00,32.5,29.9,27.72,North,9,0.0,2.0,90,0.00,,---,0.00,VWS V14.01,2013-11-02 04:09:00,
2013-11-01 23:14:00,32.5,29.9,27.72,NNE,16,2.0,3.0,90,0.00,,---,0.00,VWS V14.01,2013-11-02 04:14:00,
2013-11-01 23:19:00,32.4,29.5,27.73,North,360,2.0,5.0,89,0.00,,---,0.00,VWS V14.01,2013-11-02 04:19:00,
2013-11-01 23:24:00,32.4,29.5,27.73,North,9,0.0,2.0,89,0.00,,---,0.00,VWS V14.01,2013-11-02 04:24:00,
2013-11-01 23:29:00,32.3,29.4,27.73,North,355,7.0,7.0,89,0.00,,---,0.00,VWS V14.01,2013-11-02 04:29:00,
2013-11-01 23:34:00,32.3,29.4,27.73,North,5,4.0,5.0,89,0.00,,---,0.00,VWS V14.01,2013-11-02 04:34:00,
2013-11-01 23:39:00,32.3,29.7,27.73,North,5,1.0,2.0,90,0.00,,---,0.00,VWS V14.01,2013-11-02 04:39:00,
2013-11-01 23:45:00,32.3,29.7,27.73,NNE,14,1.0,1.0,90,0.00,,---,0.00,VWS V14.01,2013-11-02 04:45:00,
2013-11-01 23:50:00,32.2,29.6,27.74,NNE,14,0.0,2.0,90,0.00,,---,0.00,VWS V14.01,2013-11-02 04:50:00,
2013-11-01 23:55:00,32.1,29.2,27.74,NNE,24,2.0,3.0,89,0.00,,---,0.00,VWS V14.01,2013-11-02 04:55:00,